Hourly Weather Lukowiec

Today, 13 May, Thursday

Time Temperature Precipitation Wind Pressure Humidity
00:00 +9°C° 0 mm 5 mps 743 mmHg 75%
01:00 +8°C° 0 mm 5 mps 743 mmHg 78%
02:00 +7°C° 0 mm 4 mps 742 mmHg 82%
03:00 +7°C° 0 mm 4 mps 742 mmHg 84%
04:00 +6°C° 0 mm 4 mps 741 mmHg 86%
05:00 +6°C° 0 mm 4 mps 741 mmHg 88%
06:00 +7°C° 0 mm 4 mps 741 mmHg 82%
07:00 +10°C° 0 mm 4 mps 740 mmHg 77%
08:00 +12°C° 0 mm 5 mps 740 mmHg 72%
09:00 +13°C° 0 mm 5 mps 740 mmHg 67%
10:00 +15°C° 0 mm 5 mps 739 mmHg 63%
11:00 +16°C° 0 mm 5 mps 739 mmHg 59%
12:00 +17°C° 0 mm 5 mps 738 mmHg 59%
13:00 +18°C° 0 mm 4 mps 738 mmHg 59%
14:00 +19°C° 0 mm 4 mps 738 mmHg 59%
15:00 +18°C° 0 mm 4 mps 737 mmHg 66%
16:00 +17°C° 0 mm 4 mps 737 mmHg 72%
17:00 +16°C° 0 mm 3 mps 737 mmHg 78%
18:00 +14°C° 0.1 mm 3 mps 737 mmHg 82%
19:00 +14°C° 0.1 mm 3 mps 737 mmHg 86%
20:00 +14°C° 0.1 mm 2 mps 737 mmHg 90%
21:00 +14°C° 0.1 mm 2 mps 737 mmHg 91%
22:00 +14°C° 0.1 mm 2 mps 737 mmHg 92%
23:00 +14°C° 0.1 mm 2 mps 737 mmHg 92%

Tomorrow, 14 May, Friday

Time Temperature Precipitation Wind Pressure Humidity
00:00 +13°C° 0 mm 2 mps 736 mmHg 93%
01:00 +13°C° 0 mm 2 mps 736 mmHg 93%
02:00 +13°C° 0 mm 2 mps 736 mmHg 93%
03:00 +13°C° 0 mm 2 mps 736 mmHg 94%
04:00 +13°C° 0 mm 2 mps 736 mmHg 94%
05:00 +13°C° 0 mm 2 mps 736 mmHg 95%
06:00 +13°C° 0 mm 2 mps 737 mmHg 94%
07:00 +13°C° 0 mm 2 mps 737 mmHg 93%
08:00 +14°C° 0 mm 2 mps 737 mmHg 92%
09:00 +15°C° 0.2 mm 2 mps 737 mmHg 87%
10:00 +15°C° 0.2 mm 2 mps 738 mmHg 83%
11:00 +16°C° 0.2 mm 2 mps 738 mmHg 79%
12:00 +17°C° 1 mm 3 mps 738 mmHg 77%
13:00 +17°C° 1 mm 3 mps 739 mmHg 75%
14:00 +18°C° 1 mm 4 mps 739 mmHg 73%
15:00 +17°C° 0.7 mm 4 mps 739 mmHg 75%
16:00 +16°C° 0.7 mm 5 mps 739 mmHg 77%
17:00 +15°C° 0.7 mm 5 mps 740 mmHg 79%
18:00 +14°C° 0.2 mm 5 mps 740 mmHg 82%
19:00 +13°C° 0.2 mm 5 mps 740 mmHg 85%
20:00 +12°C° 0.2 mm 5 mps 741 mmHg 87%
21:00 +10°C° 0 mm 5 mps 741 mmHg 88%
22:00 +11°C° 0 mm 4 mps 741 mmHg 89%
23:00 +10°C° 0 mm 4 mps 742 mmHg 90%

Day after tomorrow, 15 May, Saturday

Time Temperature Precipitation Wind Pressure Humidity
00:00 +10°C° 0 mm 4 mps 742 mmHg 90%
01:00 +10°C° 0 mm 4 mps 742 mmHg 89%
02:00 +10°C° 0 mm 4 mps 742 mmHg 89%
03:00 +10°C° 0 mm 3 mps 743 mmHg 89%
04:00 +10°C° 0 mm 3 mps 743 mmHg 90%
05:00 +10°C° 0 mm 3 mps 743 mmHg 91%
06:00 +10°C° 0 mm 3 mps 743 mmHg 90%
07:00 +10°C° 0 mm 3 mps 744 mmHg 90%
08:00 +10°C° 0 mm 3 mps 744 mmHg 89%
09:00 +11°C° 0 mm 3 mps 744 mmHg 86%
10:00 +12°C° 0 mm 3 mps 744 mmHg 82%
11:00 +13°C° 0 mm 3 mps 744 mmHg 78%
12:00 +13°C° 0.1 mm 3 mps 744 mmHg 77%
13:00 +14°C° 0.1 mm 3 mps 744 mmHg 75%
14:00 +14°C° 0.1 mm 3 mps 744 mmHg 73%
15:00 +16°C° 0 mm 2 mps 744 mmHg 70%
16:00 +16°C° 0 mm 2 mps 744 mmHg 67%
17:00 +18°C° 0 mm 1 mps 744 mmHg 64%
18:00 +16°C° 0 mm 1 mps 744 mmHg 69%
19:00 +14°C° 0 mm 1 mps 744 mmHg 74%
20:00 +13°C° 0 mm 1 mps 744 mmHg 79%
21:00 +12°C° 0 mm 2 mps 744 mmHg 83%
22:00 +12°C° 0 mm 2 mps 744 mmHg 86%
23:00 +10°C° 0 mm 2 mps 744 mmHg 89%

16 May, Sunday

Time Temperature Precipitation Wind Pressure Humidity
00:00 +10°C° 0 mm 2 mps 744 mmHg 89%
01:00 +9°C° 0 mm 2 mps 744 mmHg 89%
02:00 +9°C° 0 mm 3 mps 744 mmHg 90%
03:00 +9°C° 0 mm 3 mps 744 mmHg 89%
04:00 +9°C° 0 mm 3 mps 743 mmHg 88%
05:00 +9°C° 0 mm 3 mps 743 mmHg 87%
06:00 +11°C° 0 mm 3 mps 743 mmHg 83%
07:00 +12°C° 0 mm 4 mps 743 mmHg 80%
08:00 +14°C° 0 mm 5 mps 743 mmHg 76%
09:00 +15°C° 0 mm 5 mps 743 mmHg 73%
10:00 +17°C° 0 mm 5 mps 743 mmHg 70%
11:00 +19°C° 0 mm 6 mps 742 mmHg 67%
12:00 +20°C° 0.3 mm 5 mps 742 mmHg 65%
13:00 +20°C° 0.3 mm 5 mps 742 mmHg 63%
14:00 +21°C° 0.3 mm 5 mps 741 mmHg 61%
15:00 +20°C° 0.4 mm 5 mps 741 mmHg 66%
16:00 +20°C° 0.4 mm 5 mps 741 mmHg 71%
17:00 +19°C° 0.4 mm 5 mps 740 mmHg 76%
18:00 +18°C° 1.3 mm 4 mps 740 mmHg 81%
19:00 +15°C° 1.3 mm 4 mps 740 mmHg 86%
20:00 +14°C° 1.3 mm 3 mps 740 mmHg 91%
21:00 +13°C° 0.4 mm 3 mps 740 mmHg 92%
22:00 +14°C° 0.4 mm 2 mps 740 mmHg 94%
23:00 +13°C° 0.4 mm 1 mps 740 mmHg 95%

17 May, Monday

Time Temperature Precipitation Wind Pressure Humidity
00:00 +13°C° 0.1 mm 1 mps 740 mmHg 96%
01:00 +13°C° 0.1 mm 2 mps 740 mmHg 96%
02:00 +13°C° 0.1 mm 2 mps 740 mmHg 96%
03:00 +13°C° 0.2 mm 2 mps 740 mmHg 97%
04:00 +12°C° 0.2 mm 3 mps 740 mmHg 97%
05:00 +12°C° 0.2 mm 3 mps 740 mmHg 97%
06:00 +11°C° 0.2 mm 3 mps 740 mmHg 97%
07:00 +11°C° 0.2 mm 4 mps 741 mmHg 96%
08:00 +11°C° 0.2 mm 4 mps 741 mmHg 95%
09:00 +11°C° 0.1 mm 4 mps 741 mmHg 93%
10:00 +12°C° 0.1 mm 3 mps 741 mmHg 90%
11:00 +12°C° 0.1 mm 3 mps 741 mmHg 88%
12:00 +14°C° 0.2 mm 3 mps 741 mmHg 80%
13:00 +16°C° 0.2 mm 3 mps 741 mmHg 73%
14:00 +18°C° 0.2 mm 3 mps 741 mmHg 65%
15:00 +18°C° 0.1 mm 3 mps 741 mmHg 64%
16:00 +18°C° 0.1 mm 2 mps 741 mmHg 63%
17:00 +19°C° 0.1 mm 2 mps 741 mmHg 62%
18:00 +18°C° 0 mm 2 mps 741 mmHg 66%
19:00 +16°C° 0 mm 1 mps 741 mmHg 71%
20:00 +15°C° 0 mm 1 mps 740 mmHg 75%
21:00 +14°C° 0 mm 1 mps 741 mmHg 77%
22:00 +14°C° 0 mm 2 mps 741 mmHg 80%
23:00 +13°C° 0 mm 2 mps 741 mmHg 82%

18 May, Tuesday

Time Temperature Precipitation Wind Pressure Humidity
00:00 +12°C° 0 mm 2 mps 741 mmHg 84%
01:00 +12°C° 0 mm 1 mps 741 mmHg 86%
02:00 +11°C° 0 mm 1 mps 741 mmHg 88%
03:00 +11°C° 0 mm 1 mps 741 mmHg 89%
04:00 +10°C° 0 mm 2 mps 741 mmHg 90%
05:00 +10°C° 0 mm 2 mps 741 mmHg 91%
06:00 +11°C° 0 mm 3 mps 741 mmHg 87%
07:00 +13°C° 0 mm 3 mps 740 mmHg 83%
08:00 +14°C° 0 mm 4 mps 740 mmHg 79%
09:00 +15°C° 0.3 mm 5 mps 740 mmHg 78%
10:00 +15°C° 0.3 mm 5 mps 740 mmHg 76%
11:00 +16°C° 0.3 mm 6 mps 739 mmHg 75%
12:00 +15°C° 1.7 mm 6 mps 739 mmHg 81%
13:00 +14°C° 1.7 mm 7 mps 739 mmHg 87%
14:00 +12°C° 1.7 mm 7 mps 738 mmHg 92%
15:00 +12°C° 1.5 mm 7 mps 738 mmHg 93%
16:00 +12°C° 1.5 mm 7 mps 737 mmHg 94%
17:00 +12°C° 1.5 mm 7 mps 736 mmHg 95%
18:00 +12°C° 0.7 mm 5 mps 736 mmHg 95%
19:00 +12°C° 0.7 mm 4 mps 736 mmHg 96%
20:00 +12°C° 0.7 mm 3 mps 736 mmHg 96%
21:00 +12°C° 0 mm 3 mps 736 mmHg 96%
22:00 +12°C° 0 mm 2 mps 735 mmHg 97%
23:00 +12°C° 0 mm 2 mps 735 mmHg 97%
Show more

We Need Your Consent

Meteoprog and our Service Providers may store and access personal data such as cookies, device identifiers or other similar technologies on your device and process such data to personalise content and ads, as well as provide social media features and to analyse the traffic.

  • Store and/or access information on your device

    Cookies, device identifiers or other information can be stored or accessed on your device for the purposes indicated above.

  • Personalised ads and content, ad and content measurement, audience insights, and products development

    Ads and content can be personalised based on a profile. More data can be added to better personalise ads and content. Ad and content performance can be measured. Insights about the audience who saw the ads and content can be derived. Such data can be used to develop or improve user’s experience, systems and software.

By clicking ‘I Agree’ you will allow the use of indicated cookies, device identifiers, web beacons or other similar technologies. Your settings can be changed in the browser on your device.

For certain purposes, legitimate interests may be relied on, rather than consent. You can read more about this in our Privacy and Cookie Policy.